Regional Weather Roundup
Issued by NWS Newport/Morehead, NC

Current Version | Previous Version | Graphics & Text | Print | Product List | Glossary On
Versions: 1 2 3 4 5 6 7 8 9 10 11 12 13 14 15 16 17 18 19 20 21 22 23 24 25 26 27 28 29 30 31 32 33 34 35 36 37 38 39 40 41 42 43 44 45 46 47 48 49 50
000 ASUS42 KMHX 232122 RWRMHX WEATHER ROUNDUP FOR EASTERN NORTH CAROLINA NATIONAL WEATHER SERVICE NEWPORT/MOREHEAD CITY NC 500 PM EDT WED JUL 23 2014 NOTE: "FAIR" INDICATES FEW OR NO CLOUDS BELOW 12,000 FEET WITH NO SIGNIFICANT WEATHER AND/OR OBSTRUCTIONS TO VISIBILITY NCZ015>017-031-032-045>047-102-103-232200- NORTH COAST CITY SKY/WX TMP DP RH WIND PRES REMARKS EDENTON SUNNY 89 73 59 SW8 29.93F ELIZABETH CITY MOSUNNY 87 73 62 SW8 29.92F KITTY HAWK CLEAR 84 75 74 S7 29.92F MANTEO NOT AVBL $$ NCZ045>047-081-094-103-104-232200- CENTRAL COAST CITY SKY/WX TMP DP RH WIND PRES REMARKS FRISCO PTSUNNY 84 76 76 SW13G18 29.97F SWANQUARTER N/A 81 N/A N/A SW10G20 29.94R $$ NCZ095-097-098-100-101-232200- SOUTHERN COAST CITY SKY/WX TMP DP RH WIND PRES REMARKS BEAUFORT MOSUNNY 83 77 82 S15 29.97F CEDAR ISLAND N/A 86 N/A N/A S7G18 30.00S JACKSONVILLE SUNNY 86 75 69 S12 29.95F NEWPORT NOT AVBL PINEY ISLAND MOCLDY 83 78 85 SW12 29.97F WILMINGTON MOSUNNY 87 75 67 S10 29.97F $$ NCZ011>013-027>030-043-044-078>080-089-090>093-098-232200- COASTAL PLAIN CITY SKY/WX TMP DP RH WIND PRES REMARKS AHOSKIE SUNNY 88 73 60 S6 29.91F CLINTON PTSUNNY 84 77 78 SW7 29.96F ELIZABETHTOWN LGT RAIN 82 76 83 NW3 29.97F GOLDSBORO PTSUNNY 89 75 63 SW10 29.92F GREENVILLE MOSUNNY 90 73 58 SW8 29.95F HAVELOCK MOSUNNY 83 74 74 S7 29.98F KENANSVILLE MOSUNNY 87 73 61 SW3 29.96F KINSTON MOSUNNY 91 72 52 SW7 29.94F NEW BERN MOSUNNY 87 77 72 S8 29.97F RICHLANDS MOSUNNY 90 73 58 S13G18 29.95F ROANOKE RAPIDS NOT AVBL ROCKY MOUNT MOSUNNY 90 73 57 S8 29.93F WASHINGTON MOSUNNY 88 72 60 S8 29.94F WHITEVILLE MOSUNNY 89 74 60 CALM 29.97F $$ AMZ130-135-150-152-154-156-158-170-250-252-270-ANZ085-086-088-633-658-670-232200- MARINE OBSERVATIONS STATION/POSITION TIME TEMP WIND PRES WAVE SWELL AIR SEA DIR/SP/G HT/PER HT/PER (UTC) (F) (DEG/KT/KT) (MB) (FT/S) (FT/S) CHESAPEAKE LIGHT NOT AVBL BUOY 44014 2100 78 80 190/ 12/ 14 1013.6 3/ 5 2/ 6 DUCK 2100 83 75 120/ 9/ 10 1012.6 2E DUCK 2100 N/A 2/ 5 OREGON INLET 2100 81 82 190/ 18/ 21 1013.9 BUOY 44095 2100 78 N/A 3/ 7 20E OREGON INLET 2000 180/ 14/ 17 N/A HATTERAS CG 2100 82 83 200/ 12/ 16 1015.1 DIAMOND BUOY 2100 VRB 19/ 21 1014.5 4/ 4 2/ 9 CAPE LOOKOUT 2100 81 200/ 12/ 15 1014.9 BEAUFORT LAB 2100 81 82 200/ 12/ 14 1014.6 30 SE NEW RIVER 2100 80 82 210/ 14/ 16 1015.5 4/ 6 2/ 8 5 SE WRIGHTSVILL 2100 78 81 200/ 16/ 17 N/A BUOY 41002 1953 82 82 230/ 16/ 17 1018.9 4/ 5 2/ 8 BUOY 41004 2100 82 83 190/ 10/ 12 1015.7 3/ 7 3/ 7 $$

USA.gov is the U.S. government's official web portal to all federal, state and local government web resources and services.